Wind_Speed
24 25 25 24 25 27 28 30 32 33 33 32 30 28 25 24 24 23 22 21 20 19 19 19 19 20 20 20 20 21 21 21 21 21 21 20 20 19 17 17 17 16 15 15 14 14 14 13 12 11 9 7 6 6 6 6 6 7 8 10 10 11 12 12 12 11 10 9 8 8 7 6 6 5 4 4 5 5 4 4 5 5 4 4 3
23 23 24 24 25 27 29 31 32 34 35 34 31 28 25 23 22 21 20 20 19 18 17 18 19 19 20 20 20 21 22 22 22 22 21 19 19 18 17 16 16 16 15 14 14 13 13 13 12 10 8 7 6 6 5 6 6 7 8 10 11 12 12 12 12 11 11 10 9 8 7 6 6 5 4 4 5 6 5 5 5 5 5 4 3
22 22 23 25 26 28 30 32 32 34 35 35 32 27 24 22 20 19 19 19 18 17 17 17 18 19 20 20 21 21 22 22 22 21 20 19 18 17 16 16 16 15 14 14 13 13 13 12 12 10 8 6 6 5 5 5 7 8 9 10 11 12 12 12 12 11 11 11 9 9 8 7 6 5 5 5 5 6 6 5 5 5 5 4 4
22 23 24 26 28 30 31 32 32 33 34 33 32 28 24 21 20 19 19 18 17 17 16 17 18 19 20 21 21 21 22 22 21 20 19 18 18 17 16 15 15 15 14 13 12 12 12 12 11 10 8 6 6 5 5 5 7 8 9 10 11 12 12 12 12 12 12 12 10 9 8 7 6 5 5 5 6 7 7 6 6 6 5 5 4
24 25 26 28 30 32 32 32 33 35 34 32 31 29 25 22 21 21 20 18 17 16 16 17 18 19 20 21 21 21 22 21 21 20 19 18 18 17 16 15 14 14 14 13 12 12 12 12 11 10 8 7 6 5 5 6 6 7 9 10 11 12 12 12 12 12 12 12 11 10 9 8 7 6 5 5 6 7 7 7 7 6 6 5 4
27 28 29 31 32 34 35 35 37 37 36 33 30 28 26 24 23 22 20 19 18 17 17 17 18 19 20 21 21 22 22 21 20 19 18 18 17 17 16 15 14 14 13 13 12 12 12 11 10 10 9 7 7 5 5 6 6 7 8 10 11 12 12 12 12 12 12 13 12 11 10 8 7 6 5 5 6 7 8 7 7 7 6 5 5
29 31 31 32 33 35 36 38 38 37 36 32 28 27 27 25 24 24 22 20 19 18 18 18 19 19 20 21 21 22 22 21 20 19 18 18 17 17 15 15 14 13 13 13 12 11 12 11 11 10 9 8 8 6 5 6 7 7 8 10 11 11 12 12 12 12 13 13 13 12 11 9 7 7 6 5 5 7 8 8 7 7 6 6 5
31 32 33 34 35 36 37 38 35 34 33 29 28 28 26 25 25 25 23 21 19 19 18 18 19 20 21 21 21 22 21 21 20 19 18 18 18 17 15 14 14 14 13 12 12 11 11 11 10 10 9 9 9 7 6 7 7 7 9 11 11 12 12 12 12 12 13 14 14 13 12 10 8 7 6 5 5 6 8 8 8 7 7 6 5
32 33 35 36 37 37 36 35 33 32 29 28 29 27 25 26 27 26 23 21 20 19 19 19 19 20 21 22 22 22 21 21 20 20 19 18 18 17 16 15 14 14 13 12 12 12 11 11 10 10 10 10 10 9 8 7 8 8 10 12 12 12 12 12 12 12 12 13 14 14 13 11 9 8 6 6 5 6 7 8 8 8 7 7 6
34 35 36 37 37 36 35 34 33 32 32 33 33 29 27 28 28 26 23 21 21 20 19 18 19 20 21 22 22 22 22 21 20 20 19 18 18 17 16 15 14 13 13 13 12 12 11 11 10 10 11 11 11 10 9 8 9 10 11 12 13 12 12 13 12 12 13 13 14 14 14 13 11 9 7 7 6 6 6 8 8 8 8 7 7
35 36 37 37 37 36 35 34 33 32 33 35 34 31 29 30 29 25 22 22 22 20 18 18 18 20 21 22 22 22 22 22 21 20 20 19 18 18 17 16 15 14 13 13 13 12 11 11 11 11 11 11 11 11 11 10 10 11 12 14 14 13 13 13 13 13 13 13 14 15 15 14 12 10 8 8 7 6 6 7 8 8 8 8 7
36 37 37 37 36 35 35 33 32 30 31 32 33 32 30 33 31 24 22 22 22 19 18 18 18 19 21 22 22 23 22 22 21 21 20 19 19 18 18 17 16 14 14 14 13 12 12 11 11 12 12 12 12 12 12 12 11 12 13 15 15 13 13 14 13 14 14 14 14 14 15 14 13 12 10 9 8 7 6 7 7 8 8 8 8
37 38 38 37 36 37 37 34 31 29 29 31 33 33 32 35 31 23 22 22 21 19 18 18 19 20 21 22 23 23 23 22 22 21 20 19 19 18 18 17 16 15 14 14 13 13 12 12 12 12 13 13 13 13 13 13 13 13 13 16 16 14 14 14 14 14 14 14 14 14 15 14 14 13 11 10 9 7 7 6 7 7 8 8 8
37 37 38 38 39 39 39 35 31 28 29 31 33 33 33 34 31 25 23 20 19 19 18 18 19 20 21 22 23 23 23 23 23 22 21 20 19 19 18 17 17 15 14 14 14 13 13 13 13 13 14 14 14 14 14 14 14 14 15 17 17 16 16 15 15 15 15 14 15 15 15 14 14 14 12 11 10 8 8 6 6 7 8 8 8
34 36 38 39 39 38 36 33 32 29 29 31 33 34 33 33 33 28 22 19 18 18 18 19 19 20 21 22 23 24 24 23 23 22 22 21 20 19 18 18 17 16 15 15 14 14 13 14 14 14 15 15 15 15 15 15 15 15 16 18 18 17 17 17 16 16 16 15 15 15 15 14 14 14 13 12 10 9 8 7 7 7 7 8 8
33 35 36 35 35 35 33 32 33 30 28 31 33 34 34 35 34 27 21 18 18 18 18 19 20 21 22 23 24 24 24 24 23 23 22 21 20 19 19 18 18 17 16 16 15 15 14 15 15 15 16 16 16 16 16 16 16 16 17 19 19 18 18 17 17 17 17 16 15 15 15 15 14 14 13 12 11 10 9 8 7 7 7 8 8
34 34 34 33 32 31 30 29 30 30 28 28 31 33 36 37 32 24 19 18 17 18 19 20 20 21 23 24 24 24 25 25 24 23 23 21 21 20 19 19 18 18 17 16 16 16 16 16 16 16 16 16 17 18 17 17 17 17 18 20 20 19 18 18 17 17 17 17 15 14 15 16 15 14 14 13 12 11 10 9 8 7 7 7 8
33 33 33 33 30 28 26 25 26 28 27 27 29 33 35 33 25 20 18 17 17 18 19 21 21 22 23 24 25 25 25 25 24 24 23 21 21 20 20 19 18 18 17 17 17 18 18 18 17 17 16 17 17 18 18 18 18 18 19 20 21 20 19 19 18 17 18 18 16 15 15 16 16 15 15 14 13 12 11 10 9 8 7 7 8
34 33 33 32 29 25 23 23 24 25 25 26 27 28 28 24 19 17 16 17 18 19 21 22 22 23 24 25 25 25 25 25 25 24 23 22 21 20 20 19 18 18 17 17 18 19 19 19 18 18 17 18 18 19 19 19 19 18 19 21 21 21 20 19 18 17 17 18 18 17 16 16 16 16 16 15 15 14 12 11 10 9 8 8 8
35 32 30 28 25 23 21 20 22 20 20 21 21 23 22 19 17 16 17 18 19 20 21 22 22 23 24 25 25 26 26 25 25 24 23 22 21 20 20 19 18 18 17 17 18 19 20 20 19 19 19 19 19 20 20 20 20 19 19 21 21 21 21 20 19 17 17 18 19 19 18 17 17 17 17 16 16 15 14 12 11 10 10 9 8
33 29 25 22 20 20 19 18 18 16 14 14 16 18 17 17 17 17 18 19 20 21 21 22 23 24 25 26 26 26 26 25 24 24 23 22 21 20 19 19 18 18 17 17 18 18 19 21 21 20 20 20 20 21 21 21 21 20 20 21 22 22 22 21 21 20 19 19 20 21 20 19 18 18 18 18 17 16 15 14 13 12 11 10 10
30 27 23 20 18 17 18 18 17 17 15 13 13 15 15 16 17 18 20 21 21 22 22 22 23 24 25 26 26 26 25 25 24 23 22 21 20 19 19 19 18 18 17 17 17 18 20 21 22 22 21 21 21 21 21 21 21 21 21 22 22 22 22 22 21 21 21 21 21 21 22 21 20 20 19 19 19 18 17 15 14 13 12 12 11
28 25 21 19 18 16 16 17 18 17 15 14 14 15 17 18 19 21 22 22 22 22 22 23 24 25 26 26 26 26 25 24 23 22 21 20 20 19 19 19 18 18 17 18 18 19 20 21 22 22 22 21 21 20 20 20 21 22 22 22 22 22 22 22 22 22 22 22 22 22 23 23 22 21 21 20 20 19 18 17 16 15 14 13 13
25 22 20 19 18 16 15 15 16 14 12 13 16 18 20 21 22 23 23 22 21 22 23 24 25 26 26 26 25 25 24 23 22 21 20 19 19 19 19 18 18 18 18 19 19 20 21 21 22 22 22 22 21 21 20 19 20 22 23 23 23 23 22 22 22 23 24 24 24 23 23 24 24 23 22 22 21 21 20 19 18 17 16 15 14
22 19 17 17 16 15 13 12 13 12 12 15 19 21 23 24 23 23 22 21 22 23 24 25 25 24 24 24 24 23 22 21 21 20 19 19 19 19 19 18 18 18 19 19 19 20 20 20 21 21 21 22 22 21 20 20 20 20 22 23 24 24 23 23 23 23 24 25 25 25 25 25 25 24 24 23 23 22 22 21 20 19 18 17 16
16 15 15 14 13 12 11 11 12 13 15 17 20 21 22 22 22 22 22 22 22 23 23 23 22 22 22 22 22 22 21 21 20 19 19 18 19 18 18 18 18 19 20 20 19 19 19 19 20 21 21 22 22 22 21 20 20 20 21 23 25 25 25 24 23 23 23 24 26 26 26 26 26 26 25 24 24 24 24 23 22 21 21 20 19
15 15 14 13 13 12 11 11 12 14 15 17 18 20 20 21 21 21 21 21 21 21 21 21 22 22 22 22 22 22 21 20 19 19 18 18 19 18 17 17 18 20 20 19 18 18 18 18 19 20 21 21 22 22 22 21 20 20 20 22 25 26 27 26 25 24 23 24 26 27 27 27 27 27 26 25 25 25 25 25 24 24 23 22 21
17 17 15 14 14 11 9 9 12 15 17 18 19 20 20 21 21 21 21 20 20 21 21 22 23 23 23 22 22 21 20 19 18 19 19 19 18 17 16 17 18 20 20 18 17 17 17 18 18 19 20 20 21 22 22 21 20 19 19 21 23 25 26 27 27 25 24 24 25 26 27 27 27 27 27 26 26 25 26 26 26 26 25 24 23
17 16 14 13 10 6 6 10 16 19 20 21 21 21 21 21 21 21 21 21 21 22 22 22 22 22 22 21 20 19 18 17 18 19 19 18 16 16 16 17 18 18 17 17 16 16 16 16 17 18 19 20 20 20 21 20 20 19 18 19 21 23 25 26 27 26 25 24 24 24 25 26 27 27 28 28 27 26 26 26 27 27 27 26 26
20 15 13 10 8 7 9 15 20 22 22 23 23 23 23 23 22 21 21 21 21 20 20 20 20 20 20 19 19 18 18 18 18 19 18 16 15 15 17 18 18 17 16 16 15 14 15 15 16 17 18 19 19 19 19 19 19 18 18 18 19 22 24 26 26 26 27 25 23 23 23 25 26 28 29 29 29 28 27 27 27 27 27 27 27
18 13 10 8 9 10 12 17 21 24 25 25 25 26 25 24 22 21 20 19 18 18 18 18 18 18 18 18 18 18 18 19 19 18 16 15 15 16 18 18 17 16 16 16 14 13 14 14 15 16 17 17 18 18 18 18 18 18 17 18 19 21 23 24 24 26 28 27 26 24 23 23 25 27 29 30 30 30 29 28 28 28 27 27 28
14 11 10 8 9 11 13 17 22 25 26 27 27 26 24 22 21 19 18 17 16 16 17 17 18 17 18 18 18 18 19 19 19 18 16 15 15 16 17 17 16 16 15 15 14 13 14 14 14 15 16 17 18 18 19 18 18 17 17 17 19 20 21 23 24 26 28 29 28 27 25 25 25 27 29 31 31 31 30 30 29 28 27 27 27
13 8 12 11 10 11 13 16 21 25 26 26 26 24 21 20 18 17 16 16 16 16 17 18 18 18 18 18 19 19 19 20 19 17 16 15 16 16 16 16 15 14 14 14 15 14 14 14 15 16 17 18 18 18 17 18 17 17 16 17 18 19 21 23 24 26 27 28 29 28 28 27 26 27 29 30 31 31 30 30 30 28 27 27 27
14 11 13 12 10 10 11 11 15 18 19 20 20 19 18 17 16 16 16 16 17 17 18 18 18 18 18 18 18 19 19 19 18 16 16 15 15 15 15 16 15 14 14 15 15 15 15 15 15 16 18 17 17 17 17 17 17 17 16 16 17 18 20 22 24 25 26 27 28 28 29 29 28 28 27 28 29 30 30 31 31 30 28 27 27
16 15 11 11 12 12 10 7 9 10 10 10 12 14 15 15 15 16 16 16 16 17 17 18 18 18 18 18 18 18 18 18 17 17 16 14 15 15 15 16 16 15 15 15 16 15 15 16 16 17 18 17 17 18 18 18 17 17 16 16 16 16 17 19 21 24 25 26 27 28 29 29 29 28 27 27 28 29 29 30 31 31 30 29 28
12 12 10 11 12 14 11 8 9 7 6 7 10 13 15 15 16 16 15 15 15 15 15 16 16 17 17 17 17 17 17 16 16 16 16 14 14 15 15 16 17 17 17 17 16 16 16 16 16 17 18 18 18 18 19 19 18 17 17 16 15 15 16 17 18 21 23 25 26 27 29 30 29 29 29 28 28 29 29 30 31 32 32 31 30
9 9 11 12 12 14 13 10 9 7 7 9 12 14 15 15 15 15 15 15 15 14 14 15 15 16 16 16 17 17 17 16 15 15 15 14 14 14 15 16 18 18 18 18 18 17 17 17 16 16 17 18 18 19 19 18 18 17 17 16 15 15 15 15 16 18 21 23 24 25 27 29 29 30 29 29 28 28 28 29 30 31 32 32 32
9 8 10 12 12 13 13 10 9 8 9 10 12 14 16 16 16 15 15 15 15 14 14 14 15 15 16 16 16 16 16 15 15 14 14 14 13 13 15 16 17 18 18 18 19 18 18 17 16 16 17 18 18 18 18 18 17 16 16 15 15 15 15 16 16 17 19 21 22 24 26 27 28 29 29 29 28 28 28 28 29 30 31 32 32
8 8 10 13 12 10 10 9 9 8 8 10 13 16 17 17 16 14 14 14 14 13 13 13 14 15 16 16 15 15 15 15 15 14 14 14 13 14 14 15 16 17 18 18 18 18 17 16 16 16 17 17 17 17 17 16 16 16 15 16 16 16 16 17 17 17 18 19 20 22 24 26 26 27 27 28 29 29 28 28 28 28 29 30 32
9 8 8 14 15 9 6 7 8 7 7 10 13 16 18 18 15 13 13 13 12 12 13 13 13 14 14 15 15 15 14 15 15 14 13 13 14 15 15 15 16 17 17 18 18 18 18 17 16 17 17 17 17 17 16 16 16 16 16 16 17 16 16 18 18 18 18 18 19 20 22 23 25 25 26 28 29 29 28 28 28 28 28 29 30
10 7 5 12 17 13 8 6 7 7 8 11 13 15 18 17 15 13 12 12 11 12 13 13 13 13 14 14 14 14 14 14 15 15 14 13 14 15 16 16 16 17 18 18 18 18 18 18 17 18 18 18 17 16 16 16 17 17 17 17 16 16 17 18 19 19 19 18 19 20 20 21 23 24 25 27 29 29 29 28 28 29 29 30 30
9 7 6 10 13 12 9 6 6 7 9 11 13 15 16 16 15 14 12 12 11 12 12 12 12 12 13 14 14 14 15 14 15 15 15 14 14 15 16 16 17 18 18 19 19 19 19 19 19 20 20 18 16 17 17 18 18 18 18 17 17 17 17 18 19 20 19 19 18 19 20 20 21 23 24 26 27 28 30 28 26 27 28 28 30
9 8 8 10 10 10 8 8 8 8 8 10 12 15 15 16 15 14 13 12 12 12 12 12 11 11 12 13 14 14 14 15 15 15 15 15 15 15 16 17 17 18 18 19 20 20 21 21 21 21 21 19 18 19 19 18 19 19 19 18 18 18 18 18 19 19 20 19 18 18 18 18 19 21 23 24 25 27 30 30 28 28 28 28 29
11 10 11 11 11 12 12 12 11 9 9 10 13 16 17 17 17 16 14 13 13 12 11 11 11 11 12 12 13 14 15 15 15 15 16 16 16 16 16 17 17 18 19 19 20 21 22 22 22 23 23 21 20 21 20 19 19 20 20 19 19 19 19 19 19 20 20 20 19 17 16 16 17 19 19 20 20 23 27 29 29 29 29 29 28
11 11 12 13 13 14 14 14 13 11 11 12 14 17 18 18 17 17 15 14 14 13 12 11 10 10 12 13 14 15 15 15 15 15 16 16 17 17 17 17 18 18 19 20 21 21 22 23 23 24 24 23 22 23 22 21 20 19 19 19 19 19 19 19 20 20 20 20 20 19 17 17 17 18 18 18 18 20 22 24 26 27 26 25 24
11 12 12 12 13 13 14 15 15 14 14 14 15 17 18 19 19 18 17 15 15 13 12 12 10 9 10 13 15 16 16 16 16 15 16 16 17 18 18 18 18 19 19 20 21 22 22 23 24 25 25 25 25 25 24 23 21 20 20 20 20 20 20 20 21 21 21 21 21 20 19 18 18 18 18 19 20 20 20 22 24 25 23 22 21
11 11 11 12 12 13 14 16 17 17 16 15 16 17 18 18 18 17 17 17 17 15 13 13 12 9 9 11 14 17 18 18 17 16 16 17 17 18 18 19 19 19 19 19 20 21 22 23 23 24 25 25 26 25 25 25 24 22 22 22 21 21 21 21 21 21 21 21 21 20 21 20 20 19 19 20 21 21 21 22 22 23 22 21 20
11 11 12 13 14 16 17 19 19 18 16 16 16 16 16 16 16 15 15 17 19 17 14 14 13 11 9 9 12 16 19 20 19 18 17 17 17 18 18 19 19 19 19 19 19 20 20 21 22 23 23 24 25 25 25 25 24 23 23 23 22 22 22 22 21 21 22 22 21 20 21 21 21 21 21 20 20 20 20 20 21 22 22 20 20
12 13 15 19 21 22 23 20 17 15 15 15 15 15 15 15 15 14 15 16 18 18 15 13 13 14 15 14 12 14 17 19 20 19 18 17 17 18 19 19 19 19 19 19 19 19 19 19 20 20 21 22 23 23 23 23 23 23 23 24 23 22 22 22 22 22 22 23 23 22 21 21 22 22 22 22 21 20 20 20 20 20 20 18 19
16 18 21 24 25 23 21 15 10 12 14 14 15 15 15 15 15 14 15 16 16 16 15 14 15 18 20 18 12 11 14 17 18 19 18 18 17 18 19 19 20 20 20 19 19 19 19 19 19 19 20 21 22 22 22 22 22 22 23 24 24 24 24 23 24 24 23 24 24 24 24 22 22 23 23 23 23 23 22 22 22 20 18 18 18
19 20 21 21 21 20 19 14 10 11 14 17 17 17 17 16 16 15 16 16 14 14 15 15 17 19 19 16 11 11 13 16 17 18 18 17 17 18 18 19 20 20 20 20 19 19 19 19 19 19 19 20 20 21 21 21 22 21 22 22 23 24 24 25 25 25 24 25 25 25 25 24 24 24 24 24 24 24 24 24 24 23 22 20 19
Wind_Direction
280 279 280 283 286 288 291 293 295 296 296 295 296 300 305 304 302 302 303 303 302 303 305 306 308 309 310 311 311 311 312 312 313 313 314 314 315 314 313 313 313 315 315 315 314 312 310 309 309 307 305 303 303 304 302 302 300 299 298 295 290 284 279 272 266 257 248 247 249 252 257 264 270 269 262 242 224 221 221 218 218 213 199 182 167
276 278 281 285 287 288 291 295 298 299 297 295 295 298 301 302 302 303 304 302 300 300 302 305 307 308 309 309 309 309 310 310 310 311 312 313 312 311 310 310 310 311 312 312 311 309 308 306 305 302 299 295 294 297 297 299 298 296 296 295 291 285 281 275 267 258 248 246 248 249 252 257 264 268 261 242 225 222 223 221 219 215 199 181 166
273 276 278 279 280 282 286 291 296 301 299 293 293 295 297 300 301 302 301 300 297 298 301 303 305 306 306 306 306 307 307 307 308 309 310 311 309 308 307 306 307 307 307 307 307 305 304 302 301 298 291 284 283 286 289 295 295 293 293 294 290 285 282 278 269 258 247 244 247 249 251 254 258 263 259 242 224 220 222 220 219 215 203 185 168
272 274 274 275 277 281 284 288 294 302 302 293 291 292 293 295 296 298 298 296 295 296 298 300 302 302 302 303 304 304 305 305 306 308 308 308 307 305 304 303 303 304 303 302 303 301 300 299 296 292 283 272 270 272 278 286 289 288 289 291 288 285 283 280 272 260 248 243 246 248 250 253 255 258 257 246 227 217 220 220 218 215 206 191 174
273 274 275 277 280 284 287 292 296 301 301 294 290 289 288 290 290 293 294 292 292 292 294 296 297 297 298 300 302 302 303 303 305 306 306 306 304 303 302 301 300 300 299 298 298 296 295 295 291 285 274 260 257 259 264 275 281 282 284 287 287 284 283 281 275 263 251 244 244 246 248 251 253 254 253 247 230 218 216 218 218 216 210 199 184
272 274 276 279 282 286 290 294 296 298 297 292 288 286 287 286 286 288 289 288 286 287 289 291 292 293 296 298 300 301 301 301 303 303 304 303 301 300 299 299 299 297 296 294 294 292 290 290 286 278 268 252 249 249 253 268 272 275 280 284 285 284 283 281 276 266 255 247 244 245 247 248 249 251 250 243 232 222 217 217 218 217 214 208 197
272 275 278 281 284 287 290 293 294 295 293 287 282 282 285 283 281 283 283 282 280 282 284 286 288 291 295 297 298 299 299 300 301 301 302 301 299 297 298 298 297 295 293 291 290 288 286 285 280 271 262 248 243 244 245 260 265 269 277 280 281 282 282 279 275 267 257 250 246 245 246 247 247 247 248 243 233 226 221 217 217 219 219 216 210
272 275 278 281 284 286 290 292 293 293 284 276 279 282 283 279 277 277 276 276 276 277 278 281 286 290 293 295 297 298 299 300 300 299 299 298 296 295 296 297 295 293 291 289 287 285 281 279 275 265 257 244 239 240 240 252 260 265 273 277 279 279 280 277 273 267 259 252 247 245 245 246 245 244 245 243 235 228 223 220 218 219 221 222 221
272 274 277 279 283 286 289 291 291 289 278 275 284 285 282 276 272 271 269 269 270 271 274 278 284 289 292 295 296 297 299 299 298 297 296 295 293 294 295 294 292 290 289 287 284 282 277 273 268 259 251 242 236 239 237 244 257 263 269 275 277 276 278 277 273 268 261 255 250 247 245 245 244 242 242 240 234 228 224 222 222 220 221 223 225
271 273 276 280 284 286 289 292 292 288 280 281 284 282 280 274 266 263 262 263 264 266 271 277 283 288 291 294 296 297 298 297 296 295 294 293 293 293 292 290 289 288 287 285 282 279 274 268 263 254 247 241 236 239 238 239 251 259 266 271 273 274 276 276 273 269 265 259 254 250 247 246 245 241 239 239 235 230 224 222 223 223 223 224 226
271 274 277 281 284 286 290 294 294 286 279 279 278 277 274 266 257 254 254 256 260 263 268 276 282 286 290 293 295 296 295 295 294 294 293 292 292 292 291 289 288 286 284 282 279 276 271 264 258 251 243 239 237 238 237 236 244 254 262 267 267 270 273 274 274 272 268 264 259 254 250 247 247 243 239 239 237 232 225 221 222 223 225 226 225
271 275 278 282 283 286 290 294 293 284 276 277 275 272 267 261 252 245 247 251 256 260 265 273 279 283 288 291 292 292 292 292 292 292 291 291 291 290 289 288 287 284 281 279 277 274 268 260 253 247 240 236 235 234 235 234 238 247 257 263 263 265 269 271 273 273 271 269 265 260 255 251 250 247 241 240 239 234 228 222 222 223 226 228 226
271 276 279 281 281 284 288 290 290 281 272 272 271 267 264 260 248 239 241 244 250 256 262 269 275 280 285 288 288 289 289 289 289 289 289 289 289 288 287 286 285 283 281 279 276 273 266 258 250 244 238 234 233 232 233 233 236 242 252 260 262 263 265 268 270 270 271 271 269 267 262 258 255 252 247 244 242 237 233 227 223 224 227 230 229
273 277 279 281 282 283 285 286 286 278 266 265 266 263 261 256 244 236 236 238 245 251 259 265 272 278 281 283 284 285 286 287 287 288 288 288 287 286 285 284 283 283 282 279 274 271 266 258 251 244 237 232 230 230 231 232 234 239 248 256 260 263 264 265 267 268 269 269 270 270 268 264 261 260 256 252 247 242 239 233 227 225 227 230 231
278 278 279 281 283 283 281 282 284 278 264 260 260 256 255 253 243 234 231 234 241 247 256 263 270 275 277 279 280 282 284 285 286 287 288 287 286 285 284 282 282 281 280 277 271 267 264 259 253 247 238 232 230 228 229 231 234 237 245 254 257 260 262 263 264 266 267 267 268 270 271 269 267 265 264 261 257 252 247 239 232 228 226 228 230
278 275 276 281 287 285 279 276 278 276 267 261 258 253 252 250 241 230 228 232 239 247 255 261 266 270 274 276 278 281 283 284 286 286 286 286 286 285 284 281 279 278 276 274 269 264 261 257 253 249 242 235 231 229 228 230 233 235 242 251 254 256 259 260 261 263 265 266 268 271 273 273 271 270 268 267 266 264 259 251 241 234 230 228 228
277 276 277 284 290 288 281 274 272 270 267 263 261 262 257 248 237 228 230 235 241 248 254 259 263 268 272 275 278 280 282 284 284 285 285 286 287 286 284 281 279 276 273 270 267 263 259 254 250 249 246 240 235 231 229 229 231 233 239 247 252 254 255 256 257 258 262 266 268 270 273 274 274 273 271 269 268 268 268 265 255 244 238 233 230
281 282 284 289 292 288 280 274 270 264 261 259 261 264 256 243 234 232 236 240 245 250 254 259 263 268 272 274 277 279 280 282 283 283 284 285 286 284 283 280 277 273 269 266 264 261 256 252 249 247 246 243 239 234 230 229 230 233 238 245 249 251 252 252 252 252 257 262 265 265 267 271 273 273 272 270 268 267 267 269 266 257 248 242 236
291 290 289 289 289 285 277 270 265 260 260 258 257 256 249 243 240 241 244 246 249 252 255 260 264 268 270 273 274 276 278 280 281 282 283 285 285 283 282 280 276 271 265 260 258 256 253 251 249 247 245 243 240 237 233 230 231 232 237 243 248 249 251 251 251 252 253 256 261 262 261 265 268 270 271 270 269 267 266 267 268 265 258 251 243
297 294 289 287 285 277 270 264 258 255 256 253 249 248 249 252 251 249 250 250 251 254 257 260 263 266 268 270 272 274 277 279 281 282 283 284 284 282 282 280 277 270 262 255 252 252 251 250 249 248 246 243 240 237 234 231 231 231 235 242 247 248 249 249 249 250 250 251 257 261 259 257 260 263 266 267 267 267 267 266 267 267 264 258 252
296 290 284 282 279 268 261 256 247 245 251 252 250 250 251 252 251 251 252 251 252 254 256 259 262 264 266 269 272 274 277 279 280 282 283 283 282 281 280 279 275 269 261 253 249 249 249 248 247 247 247 246 242 237 233 231 230 230 233 240 245 246 247 247 245 244 245 247 252 258 258 255 254 256 260 263 264 265 265 265 265 266 265 262 257
292 286 278 274 273 265 258 253 253 261 266 264 260 254 249 247 248 250 250 251 252 253 256 259 262 264 267 271 273 275 277 279 281 283 285 284 282 279 277 274 271 266 258 250 246 246 246 246 246 246 247 247 246 241 235 231 228 228 232 238 243 245 245 247 246 243 241 242 246 252 257 256 253 253 254 257 261 263 263 264 264 264 264 263 260
287 283 275 268 267 267 263 261 267 275 273 263 254 248 244 245 249 249 249 250 251 253 256 259 262 266 269 272 274 276 278 279 282 284 286 284 281 277 273 269 265 261 254 248 244 243 244 244 244 245 246 248 248 245 239 233 228 226 230 236 241 244 245 246 246 244 241 240 241 246 252 255 255 253 253 254 257 260 261 262 262 262 262 262 261
285 281 274 265 263 265 265 264 270 275 264 246 237 234 237 241 245 247 247 249 251 253 256 260 264 267 270 272 274 275 278 280 283 284 284 281 277 273 269 265 261 256 251 246 243 241 242 243 244 245 246 248 249 248 243 237 230 226 228 233 237 240 242 244 245 244 242 240 239 240 246 252 254 254 254 254 254 255 257 258 259 258 258 258 259
283 277 268 261 257 257 257 259 264 261 242 229 228 229 233 237 240 241 243 246 249 253 258 261 265 268 270 271 273 276 279 282 283 283 280 275 271 268 264 261 258 254 250 246 242 241 242 244 246 247 247 248 250 250 248 242 235 229 227 230 233 236 238 240 242 244 243 241 238 237 240 246 250 253 254 254 254 254 254 254 254 255 254 254 255
274 268 259 254 248 242 241 245 246 238 229 227 228 231 234 235 237 239 243 247 251 256 260 264 266 268 269 271 274 277 280 282 282 281 276 270 265 262 261 259 259 257 252 246 243 241 241 243 245 246 247 248 250 251 251 247 241 233 229 229 231 233 235 236 239 242 243 242 239 236 236 240 245 249 252 253 254 255 254 252 251 252 252 252 252
256 260 253 240 231 226 224 233 239 237 234 233 233 234 237 239 241 245 249 253 257 261 264 267 268 269 270 272 276 278 280 281 280 277 269 263 259 258 259 260 262 258 251 246 243 240 238 239 242 245 247 248 250 252 252 250 246 240 233 230 231 232 233 234 236 239 242 243 241 238 236 237 241 246 249 251 253 254 254 253 251 250 251 251 251
248 258 250 230 223 220 217 236 243 239 236 234 235 236 239 243 247 251 254 258 261 264 267 268 269 270 272 274 275 277 279 279 275 270 263 258 257 258 261 260 260 255 249 246 245 241 239 240 242 244 247 249 250 252 254 253 250 246 239 234 233 233 235 235 235 237 241 244 244 242 238 237 239 243 246 249 251 252 254 254 253 251 250 250 251
241 249 239 226 224 220 221 238 235 230 231 232 235 237 241 246 249 252 256 261 264 266 267 268 271 273 274 275 276 277 276 273 268 265 260 257 256 257 258 254 254 254 250 248 246 243 241 242 244 245 247 249 250 251 254 255 253 249 243 240 236 234 234 234 234 236 239 244 247 246 242 239 239 241 244 247 249 250 252 253 254 253 251 250 251
242 232 225 220 211 209 225 235 232 230 232 235 238 241 243 245 248 254 258 262 263 264 266 268 272 274 276 277 277 275 272 267 263 261 259 258 254 252 251 247 248 252 252 250 246 241 240 239 240 244 247 249 251 250 251 253 254 251 246 242 239 238 236 231 229 233 238 242 245 245 243 242 240 241 244 246 248 249 251 252 253 254 253 252 251
243 220 222 226 208 214 233 238 236 237 238 238 240 241 243 246 251 256 258 259 261 263 266 269 272 274 276 277 275 272 269 266 263 260 259 257 253 251 250 246 247 249 249 249 244 235 234 234 236 241 246 250 252 252 250 249 250 250 247 242 239 242 243 235 229 232 236 239 242 242 241 241 240 241 243 246 248 250 251 252 252 253 254 254 253
224 215 233 239 223 227 238 240 237 238 238 239 240 242 248 254 257 257 257 259 262 265 269 271 273 275 276 275 273 271 269 267 265 262 260 257 253 252 252 250 249 249 247 245 243 235 233 236 237 241 246 249 251 252 253 251 249 248 247 245 241 241 243 240 236 238 238 240 242 243 242 241 240 240 241 243 246 248 251 252 252 252 254 256 256
213 240 260 256 248 239 238 244 243 242 243 245 248 252 260 262 259 258 260 263 265 268 269 271 272 273 273 273 272 271 269 267 267 266 263 260 257 255 257 256 253 250 245 242 242 238 234 238 242 246 249 250 251 253 254 254 252 250 248 247 245 241 240 239 240 242 243 243 245 246 245 243 242 243 241 239 242 245 248 251 252 252 253 255 256
232 283 284 260 251 229 222 240 246 247 247 249 254 259 263 261 259 261 263 265 267 268 268 269 271 271 272 272 271 269 268 269 270 270 268 265 262 259 257 256 254 250 243 240 239 237 235 237 241 247 251 253 256 257 258 258 255 254 251 248 247 245 242 241 240 242 244 245 247 248 247 245 245 247 245 241 240 243 245 247 249 250 251 253 254
253 285 279 249 237 212 199 212 227 232 230 237 249 254 256 258 261 263 264 266 268 269 270 270 271 272 272 271 270 269 269 270 270 269 266 264 260 257 254 252 251 248 243 241 241 240 239 238 240 245 250 253 257 260 262 262 259 256 253 250 248 247 246 244 242 243 244 245 247 248 248 247 247 249 249 246 244 244 244 245 246 247 248 249 251
271 276 256 248 239 215 204 201 204 207 212 233 247 251 255 258 261 265 268 271 273 275 275 274 274 274 273 273 273 272 271 270 270 268 265 263 258 256 253 250 248 247 245 243 243 242 242 243 245 247 251 252 254 258 261 262 260 257 254 252 250 249 248 246 244 244 244 245 247 248 248 249 249 250 250 250 250 249 248 247 246 245 246 247 248
285 266 250 250 234 214 212 206 200 205 221 239 251 257 261 262 264 268 272 275 276 277 278 279 279 278 277 276 275 274 273 271 268 266 265 263 260 258 256 252 248 246 245 245 245 244 244 245 248 250 252 252 253 256 259 260 259 256 255 252 249 249 250 248 247 246 246 246 247 249 249 249 250 249 250 251 252 252 251 249 249 247 246 247 247
284 267 254 244 222 207 210 210 202 206 221 239 255 263 264 264 265 268 273 276 277 277 279 281 283 282 279 278 275 273 273 272 269 266 265 264 262 259 256 252 248 245 245 245 246 247 246 246 248 250 252 251 253 255 257 259 255 252 251 250 248 249 250 250 250 249 250 250 249 248 249 249 249 248 248 249 251 252 252 251 252 251 249 248 248
278 275 260 233 209 188 195 204 203 206 219 241 255 261 262 262 263 267 271 274 278 281 285 286 285 283 281 278 275 272 270 269 269 267 265 265 264 261 255 251 249 246 246 247 247 247 247 247 248 250 252 252 251 252 255 256 252 246 245 248 252 252 251 252 252 252 253 254 254 252 249 247 247 247 247 248 250 251 252 253 254 255 254 253 251
275 286 265 223 207 197 196 202 205 205 216 239 251 256 259 260 261 263 266 270 279 288 292 291 288 284 281 279 276 273 270 268 268 268 264 263 262 261 259 255 251 249 248 248 249 249 248 247 248 251 254 253 252 254 256 256 252 247 246 248 251 251 251 252 254 254 255 256 258 259 255 249 246 246 246 246 248 250 252 253 255 257 258 257 256
278 286 260 221 219 232 246 225 206 197 212 235 246 252 257 259 259 260 262 268 276 287 292 292 291 289 285 280 277 274 271 269 268 268 266 262 259 259 259 257 253 251 251 251 251 250 248 247 248 251 254 257 258 259 260 259 256 254 253 252 251 249 249 252 257 259 259 260 261 263 261 254 248 247 246 246 247 249 251 252 254 255 255 257 257
275 273 252 230 230 245 258 245 220 202 213 234 245 251 255 257 260 262 265 269 274 281 287 291 291 289 286 283 279 276 273 270 268 267 266 264 260 258 257 256 254 253 252 252 252 252 250 250 250 253 258 262 264 262 261 260 260 257 255 254 253 253 253 254 258 262 264 264 264 263 262 257 251 248 247 248 249 250 250 251 254 254 253 254 257
264 263 257 249 249 257 257 252 246 228 226 237 244 248 251 255 262 266 270 273 276 278 283 289 292 289 287 284 282 279 275 272 269 266 264 262 260 259 258 256 255 254 253 251 251 251 252 252 253 255 259 261 262 260 260 261 261 259 257 256 256 256 256 256 258 262 263 263 264 265 263 259 254 247 247 251 253 253 253 251 253 255 254 254 256
264 266 265 262 260 262 260 259 260 253 245 244 245 246 249 255 262 266 270 273 276 279 281 285 293 298 297 293 288 284 279 274 270 266 263 261 260 258 257 256 255 255 255 254 253 252 252 253 254 256 257 259 260 259 260 262 263 263 260 257 256 256 256 257 258 260 261 261 262 264 264 259 252 244 243 252 255 252 251 251 252 256 256 254 255
271 270 268 267 264 264 265 265 263 258 250 246 244 245 248 253 259 263 267 271 276 280 281 281 289 299 300 298 294 290 285 279 273 269 265 262 259 257 255 254 254 254 255 255 255 255 255 256 257 259 260 261 260 260 260 258 256 260 262 260 258 257 255 254 256 258 258 259 260 264 265 259 253 247 246 253 256 251 249 250 253 257 258 256 257
269 269 269 269 266 264 262 260 257 252 246 244 244 245 247 251 256 261 266 271 277 282 282 280 282 290 297 298 297 293 289 283 277 271 267 263 258 255 254 252 252 252 253 255 256 257 258 259 259 261 263 263 262 263 263 259 257 260 264 264 262 259 256 253 253 256 257 258 260 263 264 262 257 255 253 254 257 255 252 250 252 258 261 259 257
259 260 261 262 261 258 253 249 246 244 242 242 244 246 248 251 256 262 269 274 279 282 279 277 280 284 291 298 299 295 290 285 279 272 267 264 260 257 254 252 251 250 250 252 254 256 257 258 259 259 261 262 261 262 263 264 265 266 265 263 262 261 259 257 256 257 258 257 257 258 261 263 261 258 257 257 258 257 255 254 255 259 262 260 258
250 251 253 255 252 246 239 235 235 236 240 243 247 252 256 261 265 268 273 276 279 278 271 272 279 283 284 290 296 296 290 283 278 273 266 263 260 258 254 252 249 247 247 248 250 253 255 257 258 258 259 260 261 260 261 263 266 267 267 265 262 261 260 260 260 260 259 257 256 256 257 259 261 261 260 260 259 256 255 256 257 258 259 257 257
243 243 246 246 243 240 232 228 232 238 246 253 258 265 269 271 271 270 273 276 276 271 263 264 275 284 288 288 289 294 291 282 275 271 267 261 257 254 251 248 247 245 244 243 244 247 250 252 254 256 258 258 259 261 261 263 264 265 268 269 266 264 264 263 262 261 260 258 257 258 257 256 258 261 262 261 258 254 254 256 256 253 251 250 251
237 240 243 244 244 239 229 227 251 265 269 273 272 273 272 268 267 268 273 278 276 266 257 262 277 286 289 287 286 293 294 287 277 271 267 263 258 253 248 244 242 242 241 240 240 242 244 246 249 251 254 256 258 259 260 262 263 264 268 271 271 270 269 267 264 261 260 259 258 258 258 257 257 259 260 260 258 254 251 252 254 253 250 248 248
243 248 252 256 255 245 230 231 258 269 271 275 272 269 267 265 266 270 277 281 276 266 261 269 282 287 286 283 284 293 296 291 282 273 266 263 260 255 250 244 242 241 241 239 238 239 241 243 246 250 253 255 257 259 260 261 261 262 264 268 270 271 271 269 267 265 262 261 260 259 258 258 257 257 258 259 258 256 253 251 251 253 254 252 251
Height
5852 5852 5853 5853 5853 5853 5852 5852 5852 5851 5851 5851 5851 5852 5852 5852 5852 5852 5852 5852 5852 5852 5853 5853 5853 5853 5853 5853 5852 5852 5851 5850 5850 5849 5849 5848 5847 5847 5846 5846 5845 5845 5845 5844 5844 5844 5843 5843 5843 5844 5844 5844 5845 5845 5846 5846 5847 5847 5847 5847 5847 5847 5848 5848 5848 5849 5849 5850 5850 5850 5850 5850 5850 5850 5850 5850 5851 5851 5852 5852 5853 5853 5853 5853 5853
5851 5851 5851 5852 5852 5851 5851 5850 5850 5850 5849 5849 5850 5850 5851 5851 5850 5850 5850 5850 5850 5851 5851 5851 5852 5852 5852 5852 5851 5851 5850 5849 5849 5848 5847 5847 5846 5846 5845 5845 5844 5844 5844 5843 5843 5843 5843 5842 5843 5843 5844 5844 5844 5845 5846 5846 5846 5847 5847 5847 5847 5847 5847 5848 5848 5848 5849 5849 5849 5849 5849 5850 5850 5850 5850 5850 5851 5851 5852 5852 5853 5853 5853 5853 5854
5849 5849 5849 5850 5849 5849 5849 5848 5848 5848 5848 5848 5849 5849 5849 5849 5849 5849 5849 5849 5849 5849 5849 5849 5850 5850 5850 5850 5850 5849 5849 5848 5847 5847 5846 5845 5845 5845 5844 5844 5843 5843 5843 5843 5842 5842 5842 5842 5842 5843 5843 5843 5844 5845 5845 5846 5846 5846 5847 5847 5846 5846 5847 5847 5847 5848 5848 5849 5849 5849 5849 5849 5849 5849 5849 5850 5850 5851 5852 5852 5853 5853 5853 5853 5854
5847 5847 5847 5847 5847 5847 5847 5846 5846 5846 5846 5847 5848 5848 5848 5848 5847 5847 5847 5847 5847 5847 5847 5847 5848 5848 5848 5848 5848 5848 5847 5846 5846 5845 5845 5844 5844 5844 5843 5843 5842 5842 5842 5842 5841 5841 5841 5841 5841 5842 5842 5843 5843 5844 5845 5845 5845 5846 5846 5846 5846 5846 5846 5847 5847 5847 5848 5848 5848 5849 5849 5849 5849 5849 5849 5850 5850 5851 5852 5852 5853 5853 5853 5854 5854
5845 5845 5845 5845 5845 5845 5844 5844 5844 5845 5845 5846 5846 5847 5847 5846 5846 5846 5846 5846 5846 5846 5846 5846 5846 5846 5847 5847 5847 5846 5846 5845 5845 5844 5843 5843 5843 5842 5842 5842 5841 5841 5841 5841 5840 5840 5840 5840 5840 5841 5842 5842 5843 5844 5844 5845 5845 5845 5845 5845 5845 5845 5846 5846 5846 5846 5847 5847 5848 5848 5848 5849 5849 5849 5849 5850 5850 5851 5851 5852 5853 5853 5853 5854 5854
5842 5842 5843 5843 5843 5843 5842 5842 5842 5843 5843 5844 5845 5845 5845 5845 5845 5845 5845 5845 5844 5844 5844 5844 5844 5845 5845 5845 5845 5845 5844 5844 5843 5843 5842 5842 5841 5841 5841 5840 5840 5840 5839 5839 5839 5839 5839 5839 5840 5840 5841 5841 5842 5843 5844 5844 5844 5845 5845 5845 5844 5845 5845 5845 5846 5846 5846 5847 5847 5848 5848 5848 5849 5849 5849 5849 5850 5850 5851 5852 5852 5853 5853 5854 5854
5840 5840 5841 5841 5841 5841 5841 5840 5841 5841 5841 5842 5843 5843 5844 5844 5844 5843 5843 5843 5843 5842 5842 5843 5843 5843 5843 5843 5843 5843 5843 5842 5842 5841 5840 5840 5840 5840 5839 5839 5838 5838 5838 5838 5838 5838 5838 5838 5839 5839 5840 5841 5841 5842 5843 5844 5844 5844 5844 5844 5844 5844 5844 5845 5845 5845 5845 5846 5847 5847 5848 5848 5848 5849 5849 5849 5850 5850 5851 5851 5852 5853 5853 5854 5854
5839 5839 5839 5839 5839 5839 5839 5839 5839 5839 5839 5839 5841 5841 5842 5842 5841 5841 5841 5841 5841 5841 5841 5841 5841 5842 5842 5842 5841 5841 5841 5841 5840 5839 5839 5838 5838 5838 5837 5837 5837 5837 5837 5837 5837 5837 5837 5837 5838 5838 5839 5840 5841 5842 5843 5843 5844 5844 5843 5843 5843 5843 5844 5844 5844 5844 5845 5845 5846 5846 5847 5848 5848 5849 5849 5849 5849 5850 5850 5851 5852 5852 5853 5854 5854
5837 5837 5837 5836 5837 5837 5837 5837 5838 5838 5838 5838 5839 5839 5839 5839 5839 5839 5839 5839 5839 5839 5839 5839 5840 5840 5840 5840 5840 5839 5839 5839 5838 5837 5837 5837 5836 5836 5836 5836 5836 5835 5836 5836 5836 5836 5836 5836 5837 5837 5838 5839 5840 5841 5842 5843 5843 5843 5843 5842 5842 5843 5843 5843 5844 5844 5844 5844 5845 5845 5846 5847 5848 5848 5849 5849 5849 5849 5850 5851 5851 5852 5853 5853 5854
5834 5834 5834 5834 5834 5835 5835 5835 5835 5836 5836 5836 5836 5837 5837 5836 5836 5836 5836 5836 5836 5837 5837 5838 5838 5838 5838 5838 5838 5838 5838 5837 5837 5836 5836 5835 5835 5835 5834 5834 5834 5834 5834 5834 5835 5835 5835 5835 5836 5837 5837 5838 5839 5840 5841 5842 5843 5842 5842 5842 5842 5842 5843 5843 5843 5843 5843 5844 5844 5845 5845 5846 5847 5848 5848 5849 5849 5849 5850 5850 5851 5852 5852 5853 5853
5831 5831 5831 5831 5832 5832 5832 5832 5833 5833 5833 5833 5833 5833 5834 5833 5833 5833 5833 5833 5834 5835 5836 5836 5837 5837 5836 5836 5836 5836 5836 5835 5835 5834 5834 5834 5833 5833 5833 5833 5833 5833 5833 5833 5833 5834 5834 5834 5835 5836 5836 5837 5838 5839 5840 5841 5842 5842 5841 5840 5841 5842 5842 5842 5843 5843 5843 5843 5844 5844 5845 5846 5846 5847 5848 5848 5849 5849 5849 5850 5850 5851 5852 5853 5853
5828 5828 5828 5828 5828 5829 5829 5830 5830 5830 5830 5830 5830 5830 5831 5830 5830 5829 5830 5831 5832 5833 5834 5834 5835 5835 5834 5834 5834 5834 5834 5834 5833 5833 5833 5833 5832 5832 5832 5831 5832 5832 5832 5832 5832 5833 5833 5833 5834 5834 5835 5836 5837 5838 5839 5840 5841 5841 5840 5839 5839 5841 5842 5842 5842 5842 5842 5843 5843 5844 5844 5845 5846 5847 5848 5848 5848 5849 5849 5849 5850 5851 5852 5852 5853
5825 5825 5825 5825 5825 5826 5826 5827 5828 5827 5827 5827 5827 5828 5828 5827 5827 5827 5827 5828 5829 5831 5832 5832 5832 5832 5832 5832 5832 5832 5832 5832 5831 5831 5831 5831 5831 5830 5830 5830 5830 5831 5831 5831 5831 5831 5832 5832 5833 5833 5834 5835 5835 5837 5838 5839 5840 5840 5840 5838 5838 5840 5841 5841 5841 5841 5842 5842 5842 5843 5844 5845 5845 5846 5847 5848 5848 5849 5849 5849 5850 5850 5851 5852 5853
5824 5823 5823 5822 5822 5822 5822 5824 5825 5824 5824 5824 5825 5825 5825 5824 5824 5824 5825 5826 5827 5828 5829 5830 5830 5830 5830 5830 5830 5830 5830 5830 5830 5829 5829 5829 5829 5829 5829 5829 5829 5829 5829 5830 5830 5830 5831 5831 5831 5832 5832 5833 5834 5835 5837 5838 5839 5839 5839 5838 5838 5839 5840 5840 5841 5841 5841 5841 5842 5842 5843 5844 5845 5846 5847 5848 5848 5849 5849 5849 5849 5850 5851 5851 5852
5822 5821 5820 5820 5819 5819 5820 5821 5822 5821 5821 5822 5822 5821 5821 5822 5821 5821 5822 5823 5824 5826 5827 5828 5828 5828 5828 5828 5828 5828 5828 5828 5828 5828 5827 5827 5827 5827 5828 5828 5828 5828 5828 5828 5828 5829 5829 5830 5830 5830 5831 5832 5833 5834 5835 5837 5838 5838 5838 5837 5837 5838 5838 5839 5840 5840 5840 5840 5841 5842 5842 5843 5844 5845 5846 5847 5848 5848 5849 5849 5849 5849 5850 5851 5852
5820 5818 5818 5818 5817 5817 5818 5819 5820 5820 5820 5819 5819 5819 5818 5818 5818 5818 5820 5821 5822 5823 5825 5825 5826 5826 5826 5826 5827 5827 5827 5826 5826 5826 5826 5826 5825 5826 5826 5826 5826 5826 5826 5826 5827 5827 5827 5828 5828 5829 5829 5830 5831 5833 5834 5835 5836 5837 5837 5836 5836 5837 5837 5838 5839 5839 5839 5839 5840 5841 5841 5842 5843 5844 5845 5846 5847 5848 5848 5849 5849 5849 5850 5850 5851
5816 5816 5815 5815 5815 5815 5815 5817 5818 5818 5818 5817 5817 5817 5816 5815 5815 5817 5818 5819 5820 5822 5823 5823 5824 5824 5824 5824 5825 5825 5825 5825 5824 5824 5824 5824 5824 5824 5824 5824 5825 5825 5825 5825 5824 5825 5825 5826 5826 5827 5828 5829 5830 5831 5833 5834 5835 5836 5836 5835 5835 5836 5836 5837 5838 5838 5838 5839 5840 5840 5841 5841 5842 5843 5844 5845 5846 5847 5848 5848 5849 5849 5849 5850 5850
5813 5813 5813 5813 5813 5812 5813 5814 5815 5815 5815 5815 5815 5814 5813 5813 5814 5815 5816 5818 5819 5820 5821 5821 5821 5822 5822 5823 5823 5823 5823 5823 5823 5822 5822 5822 5822 5822 5822 5822 5822 5823 5823 5822 5822 5822 5823 5824 5824 5825 5826 5827 5828 5830 5831 5833 5834 5834 5834 5834 5834 5834 5835 5836 5836 5837 5837 5837 5838 5840 5840 5840 5841 5842 5843 5844 5845 5846 5847 5847 5848 5849 5849 5850 5850
5810 5809 5809 5810 5810 5810 5811 5812 5812 5812 5812 5812 5812 5812 5812 5813 5813 5815 5816 5817 5818 5818 5819 5819 5819 5820 5820 5821 5821 5821 5821 5821 5821 5821 5820 5820 5820 5820 5820 5820 5820 5820 5820 5820 5820 5820 5821 5822 5823 5823 5824 5826 5827 5828 5830 5831 5832 5833 5833 5832 5832 5833 5834 5835 5835 5836 5837 5837 5837 5838 5839 5840 5840 5841 5842 5843 5844 5845 5846 5846 5847 5848 5849 5849 5850
5806 5806 5806 5806 5807 5808 5808 5809 5809 5809 5810 5810 5810 5811 5811 5812 5813 5814 5815 5816 5816 5816 5817 5817 5818 5818 5819 5819 5819 5819 5820 5819 5819 5819 5819 5819 5819 5819 5818 5818 5818 5818 5818 5818 5818 5818 5819 5820 5820 5821 5822 5823 5825 5826 5828 5830 5831 5831 5832 5831 5831 5832 5832 5833 5834 5835 5836 5836 5836 5837 5838 5839 5839 5840 5840 5841 5842 5844 5845 5845 5846 5847 5848 5849 5849
5803 5803 5803 5803 5804 5805 5806 5807 5807 5808 5809 5809 5809 5809 5810 5812 5813 5813 5814 5814 5814 5814 5814 5815 5816 5816 5817 5817 5817 5817 5818 5817 5817 5817 5817 5817 5817 5817 5816 5816 5816 5816 5816 5816 5816 5816 5817 5817 5818 5819 5820 5821 5823 5824 5826 5828 5829 5830 5830 5830 5830 5830 5831 5832 5833 5834 5835 5835 5836 5836 5836 5838 5838 5839 5839 5840 5841 5842 5843 5844 5845 5846 5846 5847 5848
5800 5800 5801 5801 5802 5803 5804 5805 5806 5806 5807 5807 5808 5808 5809 5811 5811 5812 5812 5812 5812 5812 5813 5813 5814 5814 5815 5815 5815 5815 5815 5815 5815 5815 5815 5815 5815 5814 5814 5814 5814 5814 5814 5814 5814 5814 5814 5815 5815 5816 5817 5819 5821 5822 5824 5826 5827 5828 5828 5828 5828 5828 5829 5830 5831 5832 5833 5834 5835 5835 5835 5836 5837 5838 5838 5839 5840 5841 5842 5843 5844 5845 5845 5846 5847
5798 5798 5799 5799 5800 5801 5803 5804 5804 5804 5805 5805 5806 5807 5808 5809 5810 5810 5810 5810 5810 5810 5811 5811 5812 5812 5812 5813 5813 5813 5813 5813 5813 5813 5812 5812 5812 5812 5812 5812 5812 5812 5812 5812 5812 5812 5811 5812 5813 5814 5815 5817 5818 5820 5822 5823 5825 5826 5827 5826 5827 5827 5827 5828 5829 5830 5831 5832 5833 5834 5834 5834 5835 5836 5837 5838 5838 5839 5840 5841 5842 5843 5844 5845 5845
5796 5796 5797 5798 5798 5799 5800 5801 5802 5802 5802 5803 5804 5805 5806 5807 5807 5807 5807 5808 5808 5808 5809 5809 5810 5810 5810 5810 5810 5810 5810 5810 5810 5810 5810 5810 5809 5809 5809 5809 5809 5810 5810 5809 5809 5809 5809 5810 5811 5812 5813 5814 5816 5817 5819 5821 5822 5824 5825 5825 5825 5825 5826 5827 5828 5828 5829 5830 5831 5832 5832 5833 5833 5834 5835 5836 5837 5838 5839 5840 5841 5842 5843 5843 5844
5794 5794 5794 5795 5796 5797 5798 5798 5799 5800 5800 5801 5802 5803 5804 5804 5804 5805 5805 5805 5806 5806 5806 5807 5807 5808 5808 5808 5808 5808 5808 5808 5808 5807 5807 5807 5806 5806 5806 5807 5807 5807 5807 5807 5807 5807 5808 5809 5810 5811 5811 5812 5813 5815 5817 5818 5820 5821 5822 5823 5823 5824 5824 5825 5826 5826 5827 5828 5829 5830 5831 5831 5832 5832 5833 5834 5835 5836 5837 5838 5839 5840 5841 5842 5842
5791 5792 5792 5792 5793 5794 5795 5796 5797 5798 5798 5799 5800 5801 5802 5802 5802 5802 5803 5803 5804 5804 5805 5805 5805 5806 5806 5806 5806 5806 5806 5806 5805 5805 5805 5804 5804 5803 5804 5804 5805 5804 5804 5804 5805 5806 5807 5808 5808 5809 5809 5810 5811 5812 5814 5816 5817 5819 5820 5821 5821 5822 5822 5823 5823 5824 5825 5825 5826 5827 5828 5829 5830 5830 5831 5832 5834 5835 5835 5836 5837 5838 5839 5840 5841
5788 5789 5788 5789 5790 5790 5791 5794 5795 5796 5797 5797 5798 5799 5799 5799 5799 5800 5801 5802 5802 5802 5803 5803 5803 5803 5804 5804 5804 5804 5804 5804 5803 5803 5802 5801 5801 5801 5802 5802 5802 5801 5800 5801 5803 5804 5805 5806 5806 5807 5807 5808 5809 5810 5812 5813 5815 5816 5818 5818 5819 5820 5820 5821 5821 5822 5823 5823 5823 5825 5826 5827 5828 5828 5829 5830 5832 5832 5833 5834 5835 5836 5837 5838 5839
5786 5785 5784 5785 5786 5787 5789 5792 5794 5795 5795 5795 5796 5797 5797 5797 5798 5798 5799 5800 5800 5801 5801 5801 5801 5801 5802 5802 5802 5802 5802 5802 5801 5800 5799 5799 5799 5800 5801 5800 5799 5798 5798 5800 5801 5802 5803 5804 5805 5805 5806 5806 5807 5808 5809 5810 5812 5813 5815 5816 5817 5817 5818 5819 5819 5820 5821 5821 5821 5822 5824 5825 5826 5827 5827 5828 5829 5830 5831 5832 5833 5834 5835 5836 5837
5786 5785 5784 5785 5787 5788 5789 5790 5792 5793 5793 5794 5795 5795 5796 5796 5797 5797 5798 5799 5799 5800 5800 5800 5800 5800 5800 5800 5800 5800 5800 5799 5799 5797 5797 5797 5798 5799 5798 5798 5797 5796 5798 5799 5799 5801 5802 5803 5803 5804 5804 5804 5805 5806 5807 5808 5809 5811 5812 5813 5814 5815 5816 5816 5817 5818 5818 5819 5819 5820 5822 5823 5824 5825 5825 5826 5827 5828 5829 5830 5831 5832 5833 5834 5835
5785 5786 5786 5787 5788 5787 5788 5789 5790 5791 5792 5793 5793 5794 5795 5795 5796 5796 5797 5798 5798 5798 5798 5798 5798 5799 5799 5799 5798 5798 5797 5797 5796 5795 5795 5796 5796 5797 5796 5795 5795 5795 5797 5797 5798 5800 5800 5801 5802 5802 5802 5802 5803 5804 5805 5805 5807 5808 5810 5811 5812 5812 5813 5814 5815 5815 5816 5817 5817 5818 5819 5821 5822 5823 5823 5824 5824 5825 5827 5828 5829 5830 5831 5832 5833
5784 5785 5786 5786 5786 5786 5787 5788 5789 5790 5790 5791 5792 5792 5793 5794 5795 5795 5796 5796 5796 5797 5797 5797 5797 5797 5797 5797 5797 5796 5795 5794 5793 5794 5795 5795 5795 5795 5793 5793 5793 5794 5795 5796 5797 5798 5798 5799 5799 5800 5800 5800 5800 5801 5802 5803 5804 5806 5807 5809 5810 5810 5810 5811 5812 5813 5813 5814 5815 5816 5817 5818 5819 5820 5821 5822 5822 5823 5824 5825 5826 5827 5828 5830 5831
5783 5784 5785 5785 5784 5785 5786 5787 5787 5788 5788 5789 5790 5791 5793 5794 5794 5794 5794 5795 5795 5795 5795 5795 5795 5795 5795 5795 5795 5794 5793 5792 5792 5793 5794 5794 5794 5793 5792 5792 5793 5794 5794 5794 5795 5796 5796 5797 5797 5798 5798 5798 5798 5799 5800 5801 5802 5804 5805 5806 5807 5808 5808 5809 5810 5811 5811 5812 5813 5814 5814 5815 5816 5817 5818 5819 5820 5821 5822 5823 5824 5825 5826 5827 5828
5782 5782 5783 5783 5784 5785 5786 5786 5786 5787 5787 5788 5789 5791 5792 5793 5793 5793 5793 5793 5793 5793 5793 5793 5794 5794 5794 5794 5793 5792 5791 5791 5792 5793 5794 5793 5793 5792 5791 5791 5793 5794 5794 5794 5794 5794 5795 5795 5796 5796 5796 5797 5797 5798 5798 5799 5800 5802 5803 5804 5805 5806 5806 5807 5808 5808 5809 5810 5811 5812 5812 5813 5814 5815 5815 5816 5817 5818 5819 5821 5822 5823 5824 5825 5826
5781 5781 5782 5783 5783 5784 5784 5785 5785 5786 5787 5788 5789 5790 5791 5792 5792 5792 5792 5792 5792 5792 5792 5792 5792 5793 5793 5792 5791 5790 5790 5791 5793 5793 5793 5792 5792 5792 5791 5791 5792 5792 5793 5793 5793 5793 5794 5794 5795 5795 5795 5796 5797 5797 5797 5797 5798 5799 5801 5802 5803 5803 5804 5805 5805 5806 5806 5807 5808 5809 5810 5811 5812 5812 5813 5813 5814 5815 5816 5817 5819 5820 5821 5822 5823
5780 5780 5781 5781 5782 5782 5782 5783 5784 5785 5786 5786 5787 5788 5790 5791 5791 5791 5791 5791 5790 5790 5790 5791 5791 5791 5791 5790 5789 5789 5789 5791 5792 5792 5791 5791 5791 5790 5790 5790 5790 5790 5790 5790 5791 5791 5792 5793 5793 5793 5793 5794 5795 5795 5796 5796 5797 5797 5798 5800 5800 5801 5802 5803 5803 5804 5804 5805 5806 5807 5808 5809 5810 5810 5811 5811 5812 5813 5813 5814 5815 5816 5818 5819 5820
5779 5779 5780 5780 5781 5781 5781 5782 5783 5784 5784 5785 5786 5787 5788 5789 5790 5790 5790 5789 5789 5788 5789 5789 5789 5789 5789 5788 5788 5787 5788 5789 5790 5790 5790 5790 5790 5789 5789 5789 5789 5788 5788 5788 5789 5789 5790 5791 5791 5792 5792 5793 5793 5793 5794 5795 5795 5796 5796 5797 5798 5799 5800 5800 5801 5801 5802 5802 5803 5804 5805 5806 5807 5808 5808 5809 5810 5810 5811 5812 5813 5813 5814 5816 5817
5778 5778 5778 5779 5780 5780 5781 5782 5782 5782 5783 5784 5786 5787 5787 5788 5788 5788 5788 5788 5788 5787 5787 5787 5788 5788 5787 5787 5787 5786 5787 5788 5788 5788 5788 5788 5788 5788 5788 5788 5788 5787 5787 5787 5788 5788 5788 5789 5790 5790 5791 5791 5791 5792 5792 5792 5793 5794 5794 5795 5796 5797 5797 5798 5799 5799 5800 5800 5801 5802 5803 5804 5804 5805 5806 5807 5807 5808 5809 5809 5810 5811 5811 5813 5814
5776 5777 5777 5778 5779 5780 5780 5781 5781 5781 5782 5783 5785 5786 5786 5786 5787 5786 5786 5786 5786 5786 5786 5786 5786 5786 5786 5786 5786 5786 5786 5786 5786 5787 5787 5787 5787 5787 5787 5787 5787 5787 5787 5787 5787 5787 5787 5788 5789 5789 5789 5789 5789 5790 5790 5790 5792 5793 5793 5793 5794 5795 5795 5796 5797 5797 5798 5798 5799 5800 5800 5801 5802 5802 5803 5804 5805 5806 5806 5807 5807 5808 5809 5810 5811
5776 5776 5776 5778 5779 5779 5780 5780 5780 5780 5781 5782 5783 5784 5784 5785 5785 5785 5785 5785 5785 5785 5784 5784 5784 5785 5784 5784 5784 5784 5784 5784 5784 5785 5785 5785 5785 5785 5786 5786 5786 5786 5786 5786 5786 5786 5787 5787 5787 5787 5787 5787 5788 5788 5788 5789 5790 5791 5791 5791 5792 5792 5793 5794 5795 5795 5796 5796 5797 5797 5798 5798 5799 5800 5801 5802 5802 5803 5804 5805 5805 5806 5806 5807 5808
5776 5776 5776 5778 5779 5779 5779 5780 5780 5779 5779 5781 5782 5783 5783 5783 5784 5784 5784 5784 5784 5783 5783 5782 5783 5783 5783 5783 5783 5783 5783 5783 5783 5783 5783 5784 5784 5784 5784 5784 5784 5784 5784 5785 5785 5785 5786 5786 5786 5786 5786 5786 5786 5786 5787 5787 5788 5788 5789 5790 5790 5791 5791 5792 5792 5793 5794 5794 5795 5795 5795 5796 5796 5797 5798 5799 5799 5800 5801 5802 5803 5803 5804 5804 5805
5775 5775 5775 5777 5778 5779 5778 5778 5778 5778 5778 5780 5781 5782 5782 5782 5782 5782 5782 5782 5782 5781 5781 5781 5781 5781 5781 5781 5781 5781 5781 5781 5781 5781 5782 5782 5782 5782 5782 5782 5783 5783 5783 5783 5784 5784 5784 5784 5784 5784 5784 5784 5785 5785 5786 5786 5786 5787 5787 5788 5789 5790 5790 5790 5790 5791 5791 5792 5793 5793 5793 5793 5794 5794 5795 5796 5797 5798 5799 5799 5799 5799 5799 5800 5801
5773 5774 5775 5776 5777 5777 5777 5776 5776 5776 5777 5778 5779 5780 5780 5780 5779 5779 5780 5780 5780 5780 5780 5780 5780 5780 5780 5780 5779 5779 5779 5779 5779 5779 5779 5780 5780 5780 5780 5780 5781 5781 5782 5782 5782 5782 5783 5783 5783 5783 5783 5783 5785 5784 5784 5784 5784 5785 5786 5786 5787 5788 5788 5789 5789 5789 5789 5790 5791 5791 5790 5791 5791 5792 5793 5793 5794 5796 5796 5796 5796 5795 5796 5796 5797
5771 5772 5773 5774 5774 5775 5775 5775 5775 5775 5775 5776 5777 5778 5778 5777 5777 5777 5777 5778 5778 5778 5778 5778 5778 5778 5778 5778 5778 5778 5778 5777 5777 5777 5777 5777 5778 5778 5778 5778 5779 5779 5780 5780 5780 5781 5781 5781 5781 5782 5782 5782 5783 5782 5781 5782 5782 5782 5784 5785 5785 5786 5787 5787 5787 5787 5788 5788 5789 5789 5788 5789 5789 5789 5791 5791 5792 5793 5793 5793 5794 5793 5794 5794 5794
5768 5769 5770 5771 5772 5772 5772 5773 5773 5773 5774 5774 5775 5775 5775 5775 5775 5774 5775 5775 5776 5776 5776 5776 5776 5775 5775 5776 5776 5776 5776 5775 5775 5775 5775 5775 5775 5776 5776 5777 5777 5778 5778 5778 5778 5779 5779 5779 5780 5780 5780 5781 5781 5780 5779 5780 5781 5781 5781 5782 5783 5784 5785 5785 5786 5786 5786 5787 5787 5787 5787 5787 5786 5787 5789 5788 5789 5790 5789 5790 5791 5791 5791 5791 5791
5767 5767 5768 5769 5770 5770 5770 5770 5771 5771 5772 5772 5773 5773 5773 5773 5773 5773 5773 5774 5774 5774 5774 5774 5774 5774 5773 5774 5774 5774 5774 5774 5773 5773 5773 5773 5773 5774 5774 5775 5775 5776 5776 5776 5776 5777 5777 5777 5778 5778 5778 5779 5779 5778 5777 5778 5780 5780 5780 5780 5782 5782 5783 5784 5784 5784 5784 5784 5785 5785 5785 5785 5785 5785 5786 5786 5786 5787 5787 5787 5788 5787 5787 5788 5789
5765 5766 5767 5767 5768 5768 5767 5768 5768 5769 5769 5770 5770 5771 5771 5772 5772 5771 5772 5772 5772 5773 5773 5773 5773 5773 5772 5772 5772 5772 5772 5772 5772 5771 5771 5771 5772 5772 5772 5772 5773 5773 5774 5774 5775 5775 5775 5775 5776 5776 5776 5777 5776 5776 5775 5775 5777 5778 5778 5779 5780 5780 5781 5782 5782 5782 5782 5783 5783 5783 5782 5782 5783 5783 5784 5784 5784 5784 5784 5785 5784 5784 5785 5784 5786
5765 5765 5766 5765 5765 5765 5765 5765 5765 5766 5766 5767 5768 5769 5770 5770 5771 5771 5771 5771 5771 5771 5772 5771 5771 5771 5771 5771 5771 5770 5770 5770 5770 5770 5770 5770 5770 5770 5770 5771 5771 5771 5772 5772 5772 5773 5773 5773 5774 5774 5774 5774 5774 5774 5774 5773 5774 5776 5776 5777 5777 5778 5778 5779 5780 5780 5781 5780 5780 5781 5780 5780 5781 5781 5781 5781 5781 5782 5782 5782 5782 5782 5782 5782 5783
5764 5764 5764 5764 5762 5761 5760 5761 5762 5762 5763 5765 5766 5767 5769 5769 5770 5770 5770 5769 5769 5769 5769 5769 5769 5769 5769 5769 5769 5769 5769 5768 5768 5768 5768 5768 5768 5768 5768 5769 5769 5770 5770 5770 5770 5770 5771 5771 5771 5772 5772 5773 5773 5773 5773 5772 5773 5773 5774 5774 5775 5775 5776 5777 5778 5778 5779 5778 5777 5778 5778 5778 5778 5778 5779 5779 5779 5780 5780 5780 5780 5780 5780 5780 5780
5763 5762 5761 5758 5755 5755 5756 5757 5760 5762 5763 5764 5765 5766 5767 5767 5767 5767 5767 5767 5766 5766 5766 5767 5767 5767 5767 5767 5767 5768 5768 5767 5767 5766 5766 5766 5766 5766 5766 5767 5767 5767 5768 5768 5768 5768 5768 5768 5769 5769 5770 5770 5770 5771 5771 5771 5771 5771 5771 5771 5772 5773 5773 5774 5775 5775 5776 5776 5775 5775 5775 5776 5776 5776 5776 5777 5777 5778 5778 5778 5778 5778 5777 5778 5778
5759 5757 5754 5751 5752 5757 5759 5761 5762 5763 5763 5763 5763 5763 5763 5763 5764 5764 5764 5764 5764 5763 5764 5764 5764 5764 5764 5764 5765 5765 5766 5766 5765 5765 5764 5764 5764 5764 5765 5765 5765 5765 5765 5766 5766 5766 5766 5766 5766 5767 5767 5768 5768 5768 5768 5769 5769 5769 5769 5769 5770 5770 5770 5770 5771 5772 5772 5773 5773 5773 5773 5774 5774 5773 5773 5774 5775 5775 5775 5776 5775 5775 5776 5776 5776
5754 5752 5751 5753 5757 5760 5761 5762 5761 5761 5761 5760 5760 5760 5760 5760 5761 5762 5762 5763 5763 5762 5762 5762 5762 5762 5762 5762 5762 5763 5763 5763 5763 5763 5762 5762 5762 5762 5763 5763 5763 5763 5763 5763 5763 5763 5763 5763 5764 5764 5765 5765 5766 5766 5766 5766 5766 5767 5767 5767 5767 5767 5767 5767 5767 5768 5769 5770 5770 5771 5771 5771 5771 5771 5771 5772 5772 5773 5773 5773 5774 5774 5774 5774 5774